Weather History for Marianna, FL

Change the Weather History Date:

Wednesday, April 3, 2013

  Actual Average Record
Temperature  
Mean Temperature 58 °F 64 °F  
Max Temperature 64 °F 76 °F 89 °F (2006)
Min Temperature 52 °F 51 °F 42 °F (2004)
Degree Days  
Heating Degree Days 7    
Month to date heating degree days 7  
Since 1 July heating degree days 1316  
Growing Degree Days 8 (Base 50)    
Moisture  
Dew Point 54 °F    
Average Humidity 81    
Maximum Humidity 97    
Minimum Humidity 64    
Precipitation  
Precipitation 0.28 in 0.17 in 1.77 in (2012)
Month to date precipitation 0.28 0.52  
Year to date precipitation 17.13 16.04  
Sea Level Pressure  
Sea Level Pressure 30.00 in    
Wind  
Wind Speed 7 mph (NE)    
Max Wind Speed 17 mph    
Max Gust Speed 22 mph    
Visibility 9 miles    
Events Rain    
T = Trace of Precipitation, MM = Missing Value Source: NWS Daily Summary

Daily Weather History Graph

Daily Weather History Graph

Search for Another Location

Airport:

Trip Planner

Search our weather history database for the weather conditions in past years. The results will help you decide how hot, cold, wet, or windy it might be!

Date:

Astronomy

Apr. 03, 2013 Rise Set
Actual Time 6:26 AM CDT 7:01 PM CDT
Civil Twilight 6:02 AM CDT 7:25 PM CDT
Nautical Twilight 5:34 AM CDT 7:54 PM CDT
Astronomical Twilight 5:04 AM CDT 8:23 PM CDT
Moon 1:41 AM CDT (4/3) 12:37 PM CDT (4/3)
Length of Visible Light 13h 23m
Length of Day
12h 34m
Last Quarter, 44% of the Moon is Illuminated
Apr 3
Last Quarter
Apr 10
New
Apr 18
First Quarter
Apr 25
Full
May 2
Last Quarter

Hourly Weather History & Observations

Time (CDT) Temp. Dew Point Humidity Pressure Visibility Wind Dir Wind Speed Gust Speed Precip Events Conditions
12:53 AM 55.0 °F 50.0 °F 83% 30.04 in 10.0 mi Calm Calm - N/A   Clear
1:53 AM 54.0 °F 50.0 °F 86% 30.02 in 10.0 mi Calm Calm - N/A   Clear
2:53 AM 55.0 °F 51.1 °F 86% 30.01 in 10.0 mi Calm Calm - N/A   Clear
3:53 AM 55.0 °F 52.0 °F 89% 30.00 in 10.0 mi Calm Calm - N/A   Clear
4:53 AM 53.1 °F 51.1 °F 93% 30.01 in 10.0 mi Calm Calm - N/A   Clear
5:53 AM 57.0 °F 51.1 °F 81% 30.01 in 10.0 mi ENE 8.1 mph - N/A   Clear
6:53 AM 55.9 °F 48.9 °F 77% 30.03 in 10.0 mi NE 5.8 mph - N/A   Mostly Cloudy
7:53 AM 57.0 °F 46.9 °F 69% 30.04 in 10.0 mi NE 8.1 mph - N/A   Clear
8:53 AM 57.9 °F 48.0 °F 70% 30.06 in 10.0 mi NE 5.8 mph - N/A   Mostly Cloudy
9:53 AM 60.1 °F 48.9 °F 67% 30.04 in 10.0 mi ENE 6.9 mph - N/A   Overcast
10:53 AM 62.1 °F 50.0 °F 65% 30.07 in 10.0 mi Calm Calm - N/A   Mostly Cloudy
11:53 AM 60.1 °F 53.1 °F 78% 30.09 in 9.0 mi NNW 4.6 mph - 0.01 in Rain Light Rain
12:53 PM 59.0 °F 55.0 °F 87% 30.09 in 7.0 mi North 6.9 mph - 0.04 in Rain Light Rain
1:53 PM 57.9 °F 55.0 °F 90% 30.08 in 8.0 mi North 3.5 mph - 0.05 in Rain Light Rain
2:53 PM 57.9 °F 55.0 °F 90% 30.06 in 10.0 mi NNE 5.8 mph - 0.02 in Rain Light Rain
3:53 PM 59.0 °F 57.0 °F 93% 30.06 in 4.0 mi NNE 5.8 mph - 0.03 in Rain Rain
4:53 PM 57.0 °F 55.9 °F 96% 29.94 in 3.0 mi East 9.2 mph 19.6 mph 0.09 in Rain Rain
5:09 PM 57.2 °F 55.4 °F 94% 29.92 in 6.0 mi East 13.8 mph 20.7 mph 0.01 in Rain Light Rain
5:26 PM 57.2 °F 57.2 °F 100% 29.91 in 7.0 mi East 9.2 mph 19.6 mph 0.01 in   Mostly Cloudy
5:53 PM 59.0 °F 57.0 °F 93% 29.92 in 9.0 mi East 9.2 mph 17.3 mph 0.01 in   Mostly Cloudy
6:53 PM 60.1 °F 57.9 °F 93% 29.90 in 7.0 mi ENE 15.0 mph - N/A   Overcast
7:53 PM 61.0 °F 59.0 °F 93% 29.93 in 10.0 mi ENE 13.8 mph - N/A   Overcast
8:53 PM 62.1 °F 60.1 °F 93% 29.96 in 10.0 mi ENE 13.8 mph 21.9 mph N/A   Overcast
9:53 PM 62.1 °F 59.0 °F 90% 29.99 in 10.0 mi ENE 10.4 mph - N/A   Overcast
10:53 PM 61.0 °F 59.0 °F 93% 29.97 in 10.0 mi ENE 9.2 mph - N/A   Overcast
11:53 PM 62.1 °F 60.1 °F 93% 29.95 in 8.0 mi ENE 6.9 mph - 0.02 in Rain Light Rain